Location: Unspecified
(0.0000°N, 0.0000°E)
Time: 00:42:06
(UTC+00:00)

Transit 4A - Pass Details

Date: 06 October 2020
Orbit: 862 x 982 km, 66.8° (Epoch: 25 October)

Event Time Altitude Azimuth Distance (km) Brightness Sun altitude
Rises 18:42:42 0° 204° (SSW) 3,468 11.3 -13.6°
Reaches altitude 10° 18:45:10 10° 206° (SSW) 2,541 10.6 -14.2°
Maximum altitude 18:51:01 71° 289° (WNW) 949 8.1 -15.7°
Drops below altitude 10° 18:57:03 10° 13° (NNE) 2,611 10.1 -17.2°
Sets 18:59:37 0° 15° (NNE) 3,570 10.7 -17.8°
